Year,Month,Day,Hour,Minute,Value (Times are PST for temperature in C)
2015,08,18,00,00,20.10
2015,08,18,00,01,20.10
2015,08,18,00,02,20.20
2015,08,18,00,03,20.20
2015,08,18,00,04,20.30
2015,08,18,00,05,20.30
2015,08,18,00,06,20.40
2015,08,18,00,07,20.50
2015,08,18,00,08,20.50
2015,08,18,00,09,20.60
2015,08,18,00,10,20.70
2015,08,18,00,11,20.80
2015,08,18,00,12,20.90
2015,08,18,00,13,20.90
2015,08,18,00,14,20.90
2015,08,18,00,15,21.00
2015,08,18,00,16,21.00
2015,08,18,00,17,21.00
2015,08,18,00,18,21.00
2015,08,18,00,19,21.00
2015,08,18,00,20,21.00
2015,08,18,00,21,21.00
2015,08,18,00,22,20.90
2015,08,18,00,23,20.90
2015,08,18,00,24,20.80
2015,08,18,00,25,20.70
2015,08,18,00,26,20.60
2015,08,18,00,27,20.60
2015,08,18,00,28,20.50
2015,08,18,00,29,20.40
2015,08,18,00,30,20.30
2015,08,18,00,31,20.30
2015,08,18,00,32,20.20
2015,08,18,00,33,20.20
2015,08,18,00,34,20.10
2015,08,18,00,35,20.00
2015,08,18,00,36,19.90
2015,08,18,00,37,19.90
2015,08,18,00,38,19.80
2015,08,18,00,39,19.80
2015,08,18,00,40,19.80
2015,08,18,00,41,19.70
2015,08,18,00,42,19.70
2015,08,18,00,43,19.70
2015,08,18,00,44,19.70
2015,08,18,00,45,19.60
2015,08,18,00,46,19.60
2015,08,18,00,47,19.60
2015,08,18,00,48,19.60
2015,08,18,00,49,19.60
2015,08,18,00,50,19.50
2015,08,18,00,51,19.50
2015,08,18,00,52,19.50
2015,08,18,00,53,19.40
2015,08,18,00,54,19.40
2015,08,18,00,55,19.40
2015,08,18,00,56,19.30
2015,08,18,00,57,19.30
2015,08,18,00,58,19.30
2015,08,18,00,59,19.20
2015,08,18,01,00,19.20
2015,08,18,01,01,19.20
2015,08,18,01,02,19.10
2015,08,18,01,03,19.10
2015,08,18,01,04,19.00
2015,08,18,01,05,19.00
2015,08,18,01,06,18.90
2015,08,18,01,07,18.90
2015,08,18,01,08,18.90
2015,08,18,01,09,18.90
2015,08,18,01,10,18.80
2015,08,18,01,11,18.80
2015,08,18,01,12,18.80
2015,08,18,01,13,18.80
2015,08,18,01,14,18.70
2015,08,18,01,15,18.70
2015,08,18,01,16,18.70
2015,08,18,01,17,18.60
2015,08,18,01,18,18.60
2015,08,18,01,19,18.50
2015,08,18,01,20,18.50
2015,08,18,01,21,18.40
2015,08,18,01,22,18.40
2015,08,18,01,23,18.40
2015,08,18,01,24,18.40
2015,08,18,01,25,18.40
2015,08,18,01,26,18.40
2015,08,18,01,27,18.40
2015,08,18,01,28,18.30
2015,08,18,01,29,18.30
2015,08,18,01,30,18.30
2015,08,18,01,31,18.30
2015,08,18,01,32,18.30
2015,08,18,01,33,18.30
2015,08,18,01,34,18.40
2015,08,18,01,35,18.40
2015,08,18,01,36,18.40
2015,08,18,01,37,18.40
2015,08,18,01,38,18.50
2015,08,18,01,39,18.50
2015,08,18,01,40,18.50
2015,08,18,01,41,18.50
2015,08,18,01,42,18.60
2015,08,18,01,43,18.60
2015,08,18,01,44,18.60
2015,08,18,01,45,18.60
2015,08,18,01,46,18.70
2015,08,18,01,47,18.70
2015,08,18,01,48,18.70
2015,08,18,01,49,18.70
2015,08,18,01,50,18.80
2015,08,18,01,51,18.80
2015,08,18,01,52,18.80
2015,08,18,01,53,18.80
2015,08,18,01,54,18.80
2015,08,18,01,55,18.80
2015,08,18,01,56,18.80
2015,08,18,01,57,18.80
2015,08,18,01,58,18.80
2015,08,18,01,59,18.80
2015,08,18,02,00,18.80
2015,08,18,02,01,18.80
2015,08,18,02,02,18.80
2015,08,18,02,03,18.80
2015,08,18,02,04,18.70
2015,08,18,02,05,18.70
2015,08,18,02,06,18.70
2015,08,18,02,07,18.70
2015,08,18,02,08,18.70
2015,08,18,02,09,18.70
2015,08,18,02,10,18.70
2015,08,18,02,11,18.70
2015,08,18,02,12,18.70
2015,08,18,02,13,18.70
2015,08,18,02,14,18.70
2015,08,18,02,15,18.70
2015,08,18,02,16,18.70
2015,08,18,02,17,18.70
2015,08,18,02,18,18.70
2015,08,18,02,19,18.70
2015,08,18,02,20,18.70
2015,08,18,02,21,18.70
2015,08,18,02,22,18.70
2015,08,18,02,23,18.70
2015,08,18,02,24,18.70
2015,08,18,02,25,18.60
2015,08,18,02,26,18.60
2015,08,18,02,27,18.60
2015,08,18,02,28,18.60
2015,08,18,02,29,18.60
2015,08,18,02,30,18.60
2015,08,18,02,31,18.60
2015,08,18,02,32,18.60
2015,08,18,02,33,18.60
2015,08,18,02,34,18.60
2015,08,18,02,35,18.60
2015,08,18,02,36,18.60
2015,08,18,02,37,18.50
2015,08,18,02,38,18.50
2015,08,18,02,39,18.50
2015,08,18,02,40,18.50
2015,08,18,02,41,18.50
2015,08,18,02,42,18.50
2015,08,18,02,43,18.50
2015,08,18,02,44,18.50
2015,08,18,02,45,18.50
2015,08,18,02,46,18.50
2015,08,18,02,47,18.50
2015,08,18,02,48,18.50
2015,08,18,02,49,18.50
2015,08,18,02,50,18.50
2015,08,18,02,51,18.50
2015,08,18,02,52,18.50
2015,08,18,02,53,18.50
2015,08,18,02,54,18.50
2015,08,18,02,55,18.60
2015,08,18,02,56,18.60
2015,08,18,02,57,18.50
2015,08,18,02,58,18.60
2015,08,18,02,59,18.60
2015,08,18,03,00,18.60
2015,08,18,03,01,18.60
2015,08,18,03,02,18.60
2015,08,18,03,03,18.60
2015,08,18,03,04,18.60
2015,08,18,03,05,18.60
2015,08,18,03,06,18.60
2015,08,18,03,07,18.60
2015,08,18,03,08,18.60
2015,08,18,03,09,18.60
2015,08,18,03,10,18.50
2015,08,18,03,11,18.50
2015,08,18,03,12,18.50
2015,08,18,03,13,18.50
2015,08,18,03,14,18.40
2015,08,18,03,15,18.40
2015,08,18,03,16,18.40
2015,08,18,03,17,18.40
2015,08,18,03,18,18.40
2015,08,18,03,19,18.40
2015,08,18,03,20,18.40
2015,08,18,03,21,18.40
2015,08,18,03,22,18.40
2015,08,18,03,23,18.40
2015,08,18,03,24,18.40
2015,08,18,03,25,18.40
2015,08,18,03,26,18.40
2015,08,18,03,27,18.30
2015,08,18,03,28,18.30
2015,08,18,03,29,18.30
2015,08,18,03,30,18.30
2015,08,18,03,31,18.30
2015,08,18,03,32,18.30
2015,08,18,03,33,18.30
2015,08,18,03,34,18.30
2015,08,18,03,35,18.30
2015,08,18,03,36,18.30
2015,08,18,03,37,18.30
2015,08,18,03,38,18.30
2015,08,18,03,39,18.30
2015,08,18,03,40,18.30
2015,08,18,03,41,18.30
2015,08,18,03,42,18.30
2015,08,18,03,43,18.30
2015,08,18,03,44,18.30
2015,08,18,03,45,18.30
2015,08,18,03,46,18.30
2015,08,18,03,47,18.30
2015,08,18,03,48,18.30
2015,08,18,03,49,18.30
2015,08,18,03,50,18.30
2015,08,18,03,51,18.30
2015,08,18,03,52,18.30
2015,08,18,03,53,18.30
2015,08,18,03,54,18.30
2015,08,18,03,55,18.30
2015,08,18,03,56,18.30
2015,08,18,03,57,18.30
2015,08,18,03,58,18.30
2015,08,18,03,59,18.30
2015,08,18,04,00,18.30
2015,08,18,04,01,18.20
2015,08,18,04,02,18.20
2015,08,18,04,03,18.20
2015,08,18,04,04,18.20
2015,08,18,04,05,18.20
2015,08,18,04,06,18.20
2015,08,18,04,07,18.20
2015,08,18,04,08,18.20
2015,08,18,04,09,18.20
2015,08,18,04,10,18.10
2015,08,18,04,11,18.10
2015,08,18,04,12,18.10
2015,08,18,04,13,18.10
2015,08,18,04,14,18.10
2015,08,18,04,15,18.10
2015,08,18,04,16,18.10
2015,08,18,04,17,18.10
2015,08,18,04,18,18.20
2015,08,18,04,19,18.20
2015,08,18,04,20,18.20
2015,08,18,04,21,18.20
2015,08,18,04,22,18.20
2015,08,18,04,23,18.20
2015,08,18,04,24,18.20
2015,08,18,04,25,18.10
2015,08,18,04,26,18.10
2015,08,18,04,27,18.10
2015,08,18,04,28,18.10
2015,08,18,04,29,18.10
2015,08,18,04,30,18.10
2015,08,18,04,31,18.10
2015,08,18,04,32,18.00
2015,08,18,04,33,18.00
2015,08,18,04,34,18.00
2015,08,18,04,35,18.00
2015,08,18,04,36,18.00
2015,08,18,04,37,18.00
2015,08,18,04,38,18.00
2015,08,18,04,39,18.00
2015,08,18,04,40,18.00
2015,08,18,04,41,18.10
2015,08,18,04,42,18.10
2015,08,18,04,43,18.10
2015,08,18,04,44,18.10
2015,08,18,04,45,18.10
2015,08,18,04,46,18.10
2015,08,18,04,47,18.10
2015,08,18,04,48,18.10
2015,08,18,04,49,18.10
2015,08,18,04,50,18.10
2015,08,18,04,51,18.10
2015,08,18,04,52,18.10
2015,08,18,04,53,18.10
2015,08,18,04,54,18.10
2015,08,18,04,55,18.10
2015,08,18,04,56,18.10
2015,08,18,04,57,18.10
2015,08,18,04,58,18.10
2015,08,18,04,59,18.10
2015,08,18,05,00,18.00
2015,08,18,05,01,18.00
2015,08,18,05,02,18.00
2015,08,18,05,03,18.00
2015,08,18,05,04,18.10
2015,08,18,05,05,18.10
2015,08,18,05,06,18.10
2015,08,18,05,07,18.10
2015,08,18,05,08,18.10
2015,08,18,05,09,18.10
2015,08,18,05,10,18.10
2015,08,18,05,11,18.10
2015,08,18,05,12,18.10
2015,08,18,05,13,18.10
2015,08,18,05,14,18.10
2015,08,18,05,15,18.10
2015,08,18,05,16,18.10
2015,08,18,05,17,18.10
2015,08,18,05,18,18.10
2015,08,18,05,19,18.10
2015,08,18,05,20,18.10
2015,08,18,05,21,18.10
2015,08,18,05,22,18.10
2015,08,18,05,23,18.10
2015,08,18,05,24,18.10
2015,08,18,05,25,18.10
2015,08,18,05,26,18.10
2015,08,18,05,27,18.10
2015,08,18,05,28,18.10
2015,08,18,05,29,18.10
2015,08,18,05,30,18.10
2015,08,18,05,31,18.10
2015,08,18,05,32,18.00
2015,08,18,05,33,18.00
2015,08,18,05,34,18.00
2015,08,18,05,35,18.00
2015,08,18,05,36,17.90
2015,08,18,05,37,17.90
2015,08,18,05,38,17.90
2015,08,18,05,39,17.90
2015,08,18,05,40,17.90
2015,08,18,05,41,17.90
2015,08,18,05,42,17.90
2015,08,18,05,43,17.90
2015,08,18,05,44,17.80
2015,08,18,05,45,17.80
2015,08,18,05,46,17.80
2015,08,18,05,47,17.80
2015,08,18,05,48,17.80
2015,08,18,05,49,17.80
2015,08,18,05,50,17.80
2015,08,18,05,51,17.80
2015,08,18,05,52,17.80
2015,08,18,05,53,17.80
2015,08,18,05,54,17.80
2015,08,18,05,55,17.80
2015,08,18,05,56,17.80
2015,08,18,05,57,17.80
2015,08,18,05,58,17.80
2015,08,18,05,59,17.80
2015,08,18,06,00,17.80
2015,08,18,06,01,17.80
2015,08,18,06,02,17.80
2015,08,18,06,03,17.80
2015,08,18,06,04,17.80
2015,08,18,06,05,17.80
2015,08,18,06,06,17.80
2015,08,18,06,07,17.80
2015,08,18,06,08,17.80
2015,08,18,06,09,17.80
2015,08,18,06,10,17.80
2015,08,18,06,11,17.80
2015,08,18,06,12,17.80
2015,08,18,06,13,17.80
2015,08,18,06,14,17.80
2015,08,18,06,15,17.80
2015,08,18,06,16,17.80
2015,08,18,06,17,17.70
2015,08,18,06,18,17.70
2015,08,18,06,19,17.70
2015,08,18,06,20,17.70
2015,08,18,06,21,17.70
2015,08,18,06,22,17.70
2015,08,18,06,23,17.70
2015,08,18,06,24,17.70
2015,08,18,06,25,17.70
2015,08,18,06,26,17.70
2015,08,18,06,27,17.70
2015,08,18,06,28,17.70
2015,08,18,06,29,17.70
2015,08,18,06,30,17.70
2015,08,18,06,31,17.70
2015,08,18,06,32,17.70
2015,08,18,06,33,17.70
2015,08,18,06,34,17.70
2015,08,18,06,35,17.70
2015,08,18,06,36,17.70
2015,08,18,06,37,17.70
2015,08,18,06,38,17.70
2015,08,18,06,39,17.70
2015,08,18,06,40,17.70
2015,08,18,06,41,17.70
2015,08,18,06,42,17.70
2015,08,18,06,43,17.70
2015,08,18,06,44,17.70
2015,08,18,06,45,17.70
2015,08,18,06,46,17.70
2015,08,18,06,47,17.70
2015,08,18,06,48,17.70
2015,08,18,06,49,17.70
2015,08,18,06,50,17.70
2015,08,18,06,51,17.80
2015,08,18,06,52,17.80
2015,08,18,06,53,17.80
2015,08,18,06,54,17.80
2015,08,18,06,55,17.80
2015,08,18,06,56,17.80
2015,08,18,06,57,17.80
2015,08,18,06,58,17.80
2015,08,18,06,59,17.80
2015,08,18,07,00,17.80
2015,08,18,07,01,17.80
2015,08,18,07,02,17.80
2015,08,18,07,03,17.80
2015,08,18,07,04,17.80
2015,08,18,07,05,17.80
2015,08,18,07,06,17.80
2015,08,18,07,07,17.80
2015,08,18,07,08,17.80
2015,08,18,07,09,17.80
2015,08,18,07,10,17.80
2015,08,18,07,11,17.80
2015,08,18,07,12,17.80
2015,08,18,07,13,17.80
2015,08,18,07,14,17.80
2015,08,18,07,15,17.80
2015,08,18,07,16,17.80
2015,08,18,07,17,17.90
2015,08,18,07,18,17.90
2015,08,18,07,19,17.90
2015,08,18,07,20,17.90
2015,08,18,07,21,17.90
2015,08,18,07,22,17.90
2015,08,18,07,23,17.90
2015,08,18,07,24,17.90
2015,08,18,07,25,17.90
2015,08,18,07,26,17.90
2015,08,18,07,27,18.00
2015,08,18,07,28,18.00
2015,08,18,07,29,18.00
2015,08,18,07,30,18.10
2015,08,18,07,31,18.10
2015,08,18,07,32,18.10
2015,08,18,07,33,18.10
2015,08,18,07,34,18.20
2015,08,18,07,35,18.20
2015,08,18,07,36,18.20
2015,08,18,07,37,18.20
2015,08,18,07,38,18.20
2015,08,18,07,39,18.30
2015,08,18,07,40,18.30
2015,08,18,07,41,18.30
2015,08,18,07,42,18.30
2015,08,18,07,43,18.30
2015,08,18,07,44,18.40
2015,08,18,07,45,18.40
2015,08,18,07,46,18.40
2015,08,18,07,47,18.40
2015,08,18,07,48,18.40
2015,08,18,07,49,18.40
2015,08,18,07,50,18.40
2015,08,18,07,51,18.40
2015,08,18,07,52,18.40
2015,08,18,07,53,18.40
2015,08,18,07,54,18.40
2015,08,18,07,55,18.40
2015,08,18,07,56,18.40
2015,08,18,07,57,18.40
2015,08,18,07,58,18.50
2015,08,18,07,59,18.50
2015,08,18,08,00,18.50
2015,08,18,08,01,18.50
2015,08,18,08,02,18.50
2015,08,18,08,03,18.60
2015,08,18,08,04,18.60
2015,08,18,08,05,18.60
2015,08,18,08,06,18.60
2015,08,18,08,07,18.60
2015,08,18,08,08,18.60
2015,08,18,08,09,18.60
2015,08,18,08,10,18.60
2015,08,18,08,11,18.60
2015,08,18,08,12,18.70
2015,08,18,08,13,18.70
2015,08,18,08,14,18.70
2015,08,18,08,15,18.70
2015,08,18,08,16,18.70
2015,08,18,08,17,18.80
2015,08,18,08,18,18.80
2015,08,18,08,19,18.80
2015,08,18,08,20,18.90
2015,08,18,08,21,18.90
2015,08,18,08,22,19.00
2015,08,18,08,23,19.00
2015,08,18,08,24,19.10
2015,08,18,08,25,19.10
2015,08,18,08,26,19.10
2015,08,18,08,27,19.20
2015,08,18,08,28,19.20
2015,08,18,08,29,19.20
2015,08,18,08,30,19.30
2015,08,18,08,31,19.30
2015,08,18,08,32,19.30
2015,08,18,08,33,19.30
2015,08,18,08,34,19.30
2015,08,18,08,35,19.30
2015,08,18,08,36,19.40
2015,08,18,08,37,19.40
2015,08,18,08,38,19.40
2015,08,18,08,39,19.50
2015,08,18,08,40,19.50
2015,08,18,08,41,19.60
2015,08,18,08,42,19.70
2015,08,18,08,43,19.70
2015,08,18,08,44,19.70
2015,08,18,08,45,19.80
2015,08,18,08,46,19.80
2015,08,18,08,47,19.80
2015,08,18,08,48,19.80
2015,08,18,08,49,19.80
2015,08,18,08,50,19.80
2015,08,18,08,51,19.80
2015,08,18,08,52,19.80
2015,08,18,08,53,19.80
2015,08,18,08,54,19.80
2015,08,18,08,55,19.80
2015,08,18,08,56,19.80
2015,08,18,08,57,19.70
2015,08,18,08,58,19.70
2015,08,18,08,59,19.70
2015,08,18,09,00,19.70
2015,08,18,09,01,19.70
2015,08,18,09,02,19.70
2015,08,18,09,03,19.70
2015,08,18,09,04,19.70
2015,08,18,09,05,19.70
2015,08,18,09,06,19.70
2015,08,18,09,07,19.70
2015,08,18,09,08,19.70
2015,08,18,09,09,19.70
2015,08,18,09,10,19.70
2015,08,18,09,11,19.70
2015,08,18,09,12,19.70
2015,08,18,09,13,19.80
2015,08,18,09,14,19.80
2015,08,18,09,15,19.90
2015,08,18,09,16,20.00
2015,08,18,09,17,20.00
2015,08,18,09,18,20.10
2015,08,18,09,19,20.10
2015,08,18,09,20,20.20
2015,08,18,09,21,20.20
2015,08,18,09,22,20.30
2015,08,18,09,23,20.30
2015,08,18,09,24,20.30
2015,08,18,09,25,20.30
2015,08,18,09,26,20.30
2015,08,18,09,27,20.40
2015,08,18,09,28,20.40
2015,08,18,09,29,20.40
2015,08,18,09,30,20.40
2015,08,18,09,31,20.40
2015,08,18,09,32,20.40
2015,08,18,09,33,20.40
2015,08,18,09,34,20.30
2015,08,18,09,35,20.30
2015,08,18,09,36,20.20
2015,08,18,09,37,20.20
2015,08,18,09,38,20.10
2015,08,18,09,39,20.10
2015,08,18,09,40,20.00
2015,08,18,09,41,20.00
2015,08,18,09,42,20.10
2015,08,18,09,43,20.10
2015,08,18,09,44,20.20
2015,08,18,09,45,20.20
2015,08,18,09,46,20.20
2015,08,18,09,47,20.20
2015,08,18,09,48,20.20
2015,08,18,09,49,20.30
2015,08,18,09,50,20.30
2015,08,18,09,51,20.30
2015,08,18,09,52,20.30
2015,08,18,09,53,20.30
2015,08,18,09,54,20.40
2015,08,18,09,55,20.40
2015,08,18,09,56,20.50
2015,08,18,09,57,20.50
2015,08,18,09,58,20.60
2015,08,18,09,59,20.50
2015,08,18,10,00,20.50
2015,08,18,10,01,20.50
2015,08,18,10,02,20.50
2015,08,18,10,03,20.60
2015,08,18,10,04,20.60
2015,08,18,10,05,20.60
2015,08,18,10,06,20.60
2015,08,18,10,07,20.60
2015,08,18,10,08,20.60
2015,08,18,10,09,20.60
2015,08,18,10,10,20.60
2015,08,18,10,11,20.70
2015,08,18,10,12,20.70
2015,08,18,10,13,20.60
2015,08,18,10,14,20.60
2015,08,18,10,15,20.60
2015,08,18,10,16,20.60
2015,08,18,10,17,20.60
2015,08,18,10,18,20.60
2015,08,18,10,19,20.60
2015,08,18,10,20,20.60
2015,08,18,10,21,20.60
2015,08,18,10,22,20.70
2015,08,18,10,23,20.70
2015,08,18,10,24,20.60
2015,08,18,10,25,20.60
2015,08,18,10,26,20.60
2015,08,18,10,27,20.60
2015,08,18,10,28,20.60
2015,08,18,10,29,20.70
2015,08,18,10,30,20.70
2015,08,18,10,31,20.70
2015,08,18,10,32,20.70
2015,08,18,10,33,20.80
2015,08,18,10,34,20.80
2015,08,18,10,35,20.80
2015,08,18,10,36,20.80
2015,08,18,10,37,20.80
2015,08,18,10,38,20.80
2015,08,18,10,39,20.80
2015,08,18,10,40,20.80
2015,08,18,10,41,20.80
2015,08,18,10,42,20.80
2015,08,18,10,43,20.80
2015,08,18,10,44,20.80
2015,08,18,10,45,20.80
2015,08,18,10,46,20.80
2015,08,18,10,47,20.80
2015,08,18,10,48,20.80
2015,08,18,10,49,20.80
2015,08,18,10,50,20.90
2015,08,18,10,51,20.90
2015,08,18,10,52,20.90
2015,08,18,10,53,20.90
2015,08,18,10,54,20.90
2015,08,18,10,55,21.00
2015,08,18,10,56,21.00
2015,08,18,10,57,21.00
2015,08,18,10,58,21.00
2015,08,18,10,59,21.10
2015,08,18,11,00,21.10
2015,08,18,11,01,21.10
2015,08,18,11,02,21.00
2015,08,18,11,03,20.90
2015,08,18,11,04,20.90
2015,08,18,11,05,20.80
2015,08,18,11,06,20.80
2015,08,18,11,07,20.80
2015,08,18,11,08,20.80
2015,08,18,11,09,20.70
2015,08,18,11,10,20.70
2015,08,18,11,11,20.80
2015,08,18,11,12,20.80
2015,08,18,11,13,20.90
2015,08,18,11,14,21.00
2015,08,18,11,15,21.00
2015,08,18,11,16,21.00
2015,08,18,11,17,21.00
2015,08,18,11,18,21.00
2015,08,18,11,19,21.10
2015,08,18,11,20,21.20
2015,08,18,11,21,21.30
2015,08,18,11,22,21.30
2015,08,18,11,23,21.40
2015,08,18,11,24,21.50
2015,08,18,11,25,21.60
2015,08,18,11,26,21.70
2015,08,18,11,27,21.80
2015,08,18,11,28,21.80
2015,08,18,11,29,21.90
2015,08,18,11,30,21.90
2015,08,18,11,31,21.90
2015,08,18,11,32,22.00
2015,08,18,11,33,22.00
2015,08,18,11,34,22.00
2015,08,18,11,35,22.10
2015,08,18,11,36,22.10
2015,08,18,11,37,22.10
2015,08,18,11,38,22.10
2015,08,18,11,39,22.00
2015,08,18,11,40,22.00
2015,08,18,11,41,22.00
2015,08,18,11,42,22.00
2015,08,18,11,43,22.10
2015,08,18,11,44,22.10
2015,08,18,11,45,22.00
2015,08,18,11,46,22.00
2015,08,18,11,47,22.00
2015,08,18,11,48,22.00
2015,08,18,11,49,22.00
2015,08,18,11,50,22.10
2015,08,18,11,51,22.10
2015,08,18,11,52,22.10
2015,08,18,11,53,22.10
2015,08,18,11,54,22.00
2015,08,18,11,55,21.90
2015,08,18,11,56,21.80
2015,08,18,11,57,21.70
2015,08,18,11,58,21.60
2015,08,18,11,59,21.70
2015,08,18,12,00,21.70
2015,08,18,12,01,21.70
2015,08,18,12,02,21.80
2015,08,18,12,03,21.80
2015,08,18,12,04,21.90
2015,08,18,12,05,22.00
2015,08,18,12,06,22.10
2015,08,18,12,07,22.10
2015,08,18,12,08,22.20
2015,08,18,12,09,22.20
2015,08,18,12,10,22.30
2015,08,18,12,11,22.30
2015,08,18,12,12,22.30
2015,08,18,12,13,22.40
2015,08,18,12,14,22.40
2015,08,18,12,15,22.40
2015,08,18,12,16,22.40
2015,08,18,12,17,22.40
2015,08,18,12,18,22.40
2015,08,18,12,19,22.40
2015,08,18,12,20,22.30
2015,08,18,12,21,22.30
2015,08,18,12,22,22.30
2015,08,18,12,23,22.30
2015,08,18,12,24,22.20
2015,08,18,12,25,22.20
2015,08,18,12,26,22.00
2015,08,18,12,27,21.80
2015,08,18,12,28,21.70
2015,08,18,12,29,21.60
2015,08,18,12,30,21.50
2015,08,18,12,31,21.40
2015,08,18,12,32,21.40
2015,08,18,12,33,21.40
2015,08,18,12,34,21.40
2015,08,18,12,35,21.50
2015,08,18,12,36,21.50
2015,08,18,12,37,21.50
2015,08,18,12,38,21.60
2015,08,18,12,39,21.70
2015,08,18,12,40,21.70
2015,08,18,12,41,21.70
2015,08,18,12,42,21.70
2015,08,18,12,43,21.80
2015,08,18,12,44,21.90
2015,08,18,12,45,22.00
2015,08,18,12,46,22.00
2015,08,18,12,47,22.00
2015,08,18,12,48,22.10
2015,08,18,12,49,22.20
2015,08,18,12,50,22.30
2015,08,18,12,51,22.40
2015,08,18,12,52,22.40
2015,08,18,12,53,22.40
2015,08,18,12,54,22.40
2015,08,18,12,55,22.50
2015,08,18,12,56,22.50
2015,08,18,12,57,22.50
2015,08,18,12,58,22.50
2015,08,18,12,59,22.60
2015,08,18,13,00,22.70
2015,08,18,13,01,22.70
2015,08,18,13,02,22.80
2015,08,18,13,03,22.90
2015,08,18,13,04,22.90
2015,08,18,13,05,22.90
2015,08,18,13,06,22.80
2015,08,18,13,07,22.90
2015,08,18,13,08,22.90
2015,08,18,13,09,22.90
2015,08,18,13,10,23.00
2015,08,18,13,11,23.00
2015,08,18,13,12,23.00
2015,08,18,13,13,23.00
2015,08,18,13,14,23.10
2015,08,18,13,15,23.00
2015,08,18,13,16,23.00
2015,08,18,13,17,23.00
2015,08,18,13,18,23.00
2015,08,18,13,19,23.00
2015,08,18,13,20,22.90
2015,08,18,13,21,22.80
2015,08,18,13,22,22.70
2015,08,18,13,23,22.70
2015,08,18,13,24,22.60
2015,08,18,13,25,22.60
2015,08,18,13,26,22.60
2015,08,18,13,27,22.60
2015,08,18,13,28,22.60
2015,08,18,13,29,22.60
2015,08,18,13,30,22.50
2015,08,18,13,31,22.40
2015,08,18,13,32,22.50
2015,08,18,13,33,22.50
2015,08,18,13,34,22.60
2015,08,18,13,35,22.70
2015,08,18,13,36,22.70
2015,08,18,13,37,22.60
2015,08,18,13,38,22.60
2015,08,18,13,39,22.60
2015,08,18,13,40,22.60
2015,08,18,13,41,22.60
2015,08,18,13,42,22.60
2015,08,18,13,43,22.60
2015,08,18,13,44,22.70
2015,08,18,13,45,22.70
2015,08,18,13,46,22.70
2015,08,18,13,47,22.80
2015,08,18,13,48,22.90
2015,08,18,13,49,23.00
2015,08,18,13,50,23.10
2015,08,18,13,51,23.10
2015,08,18,13,52,23.20
2015,08,18,13,53,23.10
2015,08,18,13,54,23.10
2015,08,18,13,55,23.10
2015,08,18,13,56,23.00
2015,08,18,13,57,22.90
2015,08,18,13,58,22.90
2015,08,18,13,59,22.90
2015,08,18,14,00,22.90
2015,08,18,14,01,22.90
2015,08,18,14,02,22.90
2015,08,18,14,03,23.00
2015,08,18,14,04,23.00
2015,08,18,14,05,23.10
2015,08,18,14,06,23.20
2015,08,18,14,07,23.20
2015,08,18,14,08,23.20
2015,08,18,14,09,23.20
2015,08,18,14,10,23.20
2015,08,18,14,11,23.10
2015,08,18,14,12,23.10
2015,08,18,14,13,23.10
2015,08,18,14,14,23.20
2015,08,18,14,15,23.10
2015,08,18,14,16,23.10
2015,08,18,14,17,23.10
2015,08,18,14,18,23.10
2015,08,18,14,19,23.20
2015,08,18,14,20,23.20
2015,08,18,14,21,23.20
2015,08,18,14,22,23.20
2015,08,18,14,23,23.30
2015,08,18,14,24,23.30
2015,08,18,14,25,23.40
2015,08,18,14,26,23.40
2015,08,18,14,27,23.40
2015,08,18,14,28,23.50
2015,08,18,14,29,23.60
2015,08,18,14,30,23.70
2015,08,18,14,31,23.70
2015,08,18,14,32,23.80
2015,08,18,14,33,23.80
2015,08,18,14,34,23.90
2015,08,18,14,35,23.90
2015,08,18,14,36,24.00
2015,08,18,14,37,24.10
2015,08,18,14,38,24.20
2015,08,18,14,39,24.20
2015,08,18,14,40,24.20
2015,08,18,14,41,24.30
2015,08,18,14,42,24.30
2015,08,18,14,43,24.40
2015,08,18,14,44,24.50
2015,08,18,14,45,24.50
2015,08,18,14,46,24.60
2015,08,18,14,47,24.70
2015,08,18,14,48,24.70
2015,08,18,14,49,24.70
2015,08,18,14,50,24.70
2015,08,18,14,51,24.80
2015,08,18,14,52,24.90
2015,08,18,14,53,25.00
2015,08,18,14,54,25.10
2015,08,18,14,55,25.20
2015,08,18,14,56,25.20
2015,08,18,14,57,25.30
2015,08,18,14,58,25.30
2015,08,18,14,59,25.30
2015,08,18,15,00,25.30
2015,08,18,15,01,25.20
2015,08,18,15,02,25.20
2015,08,18,15,03,25.10
2015,08,18,15,04,25.00
2015,08,18,15,05,25.00
2015,08,18,15,06,25.00
2015,08,18,15,07,25.10
2015,08,18,15,08,25.10
2015,08,18,15,09,25.20
2015,08,18,15,10,25.20
2015,08,18,15,11,25.20
2015,08,18,15,12,25.30
2015,08,18,15,13,25.30
2015,08,18,15,14,25.30
2015,08,18,15,15,25.30
2015,08,18,15,16,25.30
2015,08,18,15,17,25.10
2015,08,18,15,18,25.00
2015,08,18,15,19,24.90
2015,08,18,15,20,24.80
2015,08,18,15,21,24.80
2015,08,18,15,22,24.80
2015,08,18,15,23,24.80
2015,08,18,15,24,24.80
2015,08,18,15,25,24.90
2015,08,18,15,26,24.90
2015,08,18,15,27,25.00
2015,08,18,15,28,25.10
2015,08,18,15,29,25.10
2015,08,18,15,30,25.10
2015,08,18,15,31,25.20
2015,08,18,15,32,25.30
2015,08,18,15,33,25.30
2015,08,18,15,34,25.40
2015,08,18,15,35,25.50
2015,08,18,15,36,25.60
2015,08,18,15,37,25.60
2015,08,18,15,38,25.60
2015,08,18,15,39,25.40
2015,08,18,15,40,25.30
2015,08,18,15,41,25.20
2015,08,18,15,42,25.20
2015,08,18,15,43,25.20
2015,08,18,15,44,25.20
2015,08,18,15,45,25.20
2015,08,18,15,46,25.30
2015,08,18,15,47,25.40
2015,08,18,15,48,25.50
2015,08,18,15,49,25.60
2015,08,18,15,50,25.70
2015,08,18,15,51,25.70
2015,08,18,15,52,25.70
2015,08,18,15,53,25.70
2015,08,18,15,54,25.70
2015,08,18,15,55,25.70
2015,08,18,15,56,25.70
2015,08,18,15,57,25.70
2015,08,18,15,58,25.80
2015,08,18,15,59,25.80
2015,08,18,16,00,25.80
2015,08,18,16,01,25.80
2015,08,18,16,02,25.90
2015,08,18,16,03,25.90
2015,08,18,16,04,25.90
2015,08,18,16,05,25.90
2015,08,18,16,06,25.90
2015,08,18,16,07,25.80
2015,08,18,16,08,25.80
2015,08,18,16,09,25.70
2015,08,18,16,10,25.70
2015,08,18,16,11,25.70
2015,08,18,16,12,25.70
2015,08,18,16,13,25.70
2015,08,18,16,14,25.70
2015,08,18,16,15,25.70
2015,08,18,16,16,25.80
2015,08,18,16,17,25.80
2015,08,18,16,18,25.80
2015,08,18,16,19,25.80
2015,08,18,16,20,25.90
2015,08,18,16,21,25.90
2015,08,18,16,22,25.90
2015,08,18,16,23,26.00
2015,08,18,16,24,26.00
2015,08,18,16,25,26.10
2015,08,18,16,26,26.10
2015,08,18,16,27,26.20
2015,08,18,16,28,26.20
2015,08,18,16,29,26.30
2015,08,18,16,30,26.30
2015,08,18,16,31,26.30
2015,08,18,16,32,26.40
2015,08,18,16,33,26.40
2015,08,18,16,34,26.40
2015,08,18,16,35,26.40
2015,08,18,16,36,26.50
2015,08,18,16,37,26.50
2015,08,18,16,38,26.60
2015,08,18,16,39,26.60
2015,08,18,16,40,26.60
2015,08,18,16,41,26.60
2015,08,18,16,42,26.60
2015,08,18,16,43,26.60
2015,08,18,16,44,26.60
2015,08,18,16,45,26.70
2015,08,18,16,46,26.70
2015,08,18,16,47,26.80
2015,08,18,16,48,26.80
2015,08,18,16,49,26.90
2015,08,18,16,50,27.00
2015,08,18,16,51,27.00
2015,08,18,16,52,27.10
2015,08,18,16,53,27.10
2015,08,18,16,54,27.10
2015,08,18,16,55,27.00
2015,08,18,16,56,27.00
2015,08,18,16,57,27.00
2015,08,18,16,58,27.00
2015,08,18,16,59,27.10
2015,08,18,17,00,27.10
2015,08,18,17,01,27.10
2015,08,18,17,02,27.10
2015,08,18,17,03,27.10
2015,08,18,17,04,27.20
2015,08,18,17,05,27.20
2015,08,18,17,06,27.20
2015,08,18,17,07,27.30
2015,08,18,17,08,27.30
2015,08,18,17,09,27.30
2015,08,18,17,10,27.30
2015,08,18,17,11,27.40
2015,08,18,17,12,27.40
2015,08,18,17,13,27.40
2015,08,18,17,14,27.50
2015,08,18,17,15,27.50
2015,08,18,17,16,27.60
2015,08,18,17,17,27.60
2015,08,18,17,18,27.60
2015,08,18,17,19,27.60